Hourly Data Report for April 27, 2017

MIRAMICHI RCS
NEW BRUNSWICK

47°00'34.000" N
65°27'54.000" W
33.00 m
8100989
71744
ACQ

Download Data

Hourly Data (April 2017)
Hourly Data Report for April 27, 2017
TIME
LST
Temp Definition
°C
Dew Point Definition
°C
Rel Hum Definition
%
Precip. Amount Definition
mm

Wind Dir Definition
10's deg

Wind Spd Definition
km/h
Visibility Definition
km
Stn Press Definition
kPa
Hmdx Definition


Wind Chill Definition


Weather Definition


00:00 10.9 10.5 98 0.4   0   101.32     LegendNANA
01:00 10.9 10.5 98 0.6 14 1   101.29     LegendNANA
02:00 11.4 11.1 98 0.0 12 2   101.27     LegendNANA
03:00 11.8 11.5 98 0.6 0 1   101.28     LegendNANA
04:00 13.3 13.1 99 0.5 16 7   101.24     LegendNANA
05:00 13.7 13.5 99 0.0 16 9   101.25     LegendNANA
06:00 13.4 13.2 99 0.0 9 5   101.28     LegendNANA
07:00 12.8 12.6 99 0.0 3 8   101.33     LegendNANA
08:00 12.4 12.1 99 0.0 5 7   101.34     LegendNANA
09:00 11.9 11.7 98 0.0 4 11   101.37     LegendNANA
10:00 10.4 10.0 98 0.2 3 12   101.45     LegendNANA
11:00 8.6 7.9 95 0.0 3 15   101.50     LegendNANA
12:00 7.8 7.1 95 0.0 3 15   101.50     LegendNANA
13:00 7.6 6.9 95 0.0 4 14   101.50     LegendNANA
14:00 7.2 6.5 95 0.0 3 13   101.48     LegendNANA
15:00 6.2 5.6 96 0.0 2 13   101.49     LegendNANA
16:00 5.1 4.6 96 0.3 4 14   101.54     LegendNANA
17:00 4.6 3.5 93 0.0 4 15   101.52     LegendNANA
18:00 3.8 3.0 95 0.0 3 14   101.51     LegendNANA
19:00 3.3 3.0 98 0.0 4 9   101.50     LegendNANA
20:00 2.8 2.5 98 0.0 3 12   101.48     LegendNANA
21:00 2.6 2.3 98 0.0 4 9   101.49     LegendNANA
22:00 2.2 1.9 98 0.0 3 7   101.47     LegendNANA
23:00 1.9 1.6 98 0.2 4 10   101.44     LegendNANA

Notes on Data Quality.

Legend

  • E = Estimated
  • M = Missing
  • NA = Not Available*
  • [empty] = Indicates an unobserved value
Date modified: